User: anonymous   Login
Location: Caltech
(34.1382°N, 118.1253°W)
Time: 12:17:18
(UTC-08:00)
Language:

Cosmos 676 Rocket - Orbit

View from above orbital plane
View from above orbital plane
View from above satellite
View from above satellite

Ground track
Ground track

The orbit data is extracted from the following two-line orbital elements,

1 07434U 74071B   16341.82046342  .00000084  00000-0  37329-4 0  9991
2 07434  74.0462 207.2920 0020537 168.4989 191.6638 14.36604503209082
Epoch (UTC): 06 December 2016 19:41:28
Eccentricity: 0.0020537
inclination: 74.0462°
perigee height: 755 km
apogee height: 784 km
right ascension of ascending node: 207.2920°
argument of perigee: 168.4989°
revolutions per day: 14.36604503
mean anomaly at epoch: 191.6638°
orbit number at epoch: 20908

The dashed part of the orbit path shows where the satellite is in the earth's shadow,  

DLR